Regional Weather Roundup
Issued by NWS Charleston, SC

Current Version | Previous Version | Graphics & Text | Print | Product List | Glossary On
Versions: 1 2 3 4 5 6 7 8 9 10 11 12 13 14 15 16 17 18 19 20 21 22 23 24 25 26 27 28 29 30 31 32 33 34 35 36 37 38 39 40 41 42 43 44 45 46 47 48 49 50
000 ASUS42 KCHS 021027 RWRCHS REGIONAL WEATHER ROUNDUP NATIONAL WEATHER SERVICE CHARLESTON SC 600 AM EDT SUN AUG 02 2015 NOTE: "FAIR" INDICATES FEW OR NO CLOUDS BELOW 12,000 FEET WITH NO SIGNIFICANT WEATHER AND/OR OBSTRUCTIONS TO VISIBILITY. NOT ALL STATIONS ARE QUALITY CONTROLLED BY THE NATIONAL WEATHER SERVICE. USE DATA WITH CAUTION...ESPECIALLY DEWPOINT OBSERVATIONS. SCZ027-030-031-034>040-042>050-021100- ...SOUTHEAST SOUTH CAROLINA... CITY SKY/WX TMP DP RH WIND PRES REMARKS N CHARLESTON PTCLDY 76 74 93 CALM 29.90S WATERFRONT PRK N/A 79 76 91 CALM 29.88R MOUNT PLEASANT FAIR 73 73 100 CALM 29.91S FOG JOHNS ISLAND FAIR 75 73 94 CALM 29.91R PINOPOLIS NOT AVBL MONCKS CORNER FAIR 72 70 94 CALM 29.92R FOG SUMMERVILLE FAIR 72 72 100 CALM 29.92S BEAUFORT MCAS CLEAR 75 73 93 W6 29.90R BEAUFORT ARPT FAIR 75 75 100 CALM 29.90R HILTON HEAD IS NOT AVBL WALTERBORO FOG 73 73 100 CALM 29.92R VSB 1/4 ALLENDALE FOG 73 73 100 CALM 29.90S VSB<1/4 ...SOUTHERN MIDLANDS AND PEE DEE... CITY SKY/WX TMP DP RH WIND PRES REMARKS GEORGETOWN NOT AVBL KINGSTREE NOT AVBL ORANGEBURG FOG 75 74 96 CALM 29.92R VSB 1/2 BARNWELL FOG 75 73 94 NE3 29.92R VSB 1/4 AIKEN FAIR 70 68 94 CALM 29.96R FOG MANNING HVY RAIN 70 70 100 CALM 29.93R COLUMBIA MOCLDY 75 70 84 CALM 29.91S SUMTER MOCLDY 73 71 93 E2 29.90S FLORENCE CLEAR 74 72 93 CALM 29.91S MYRTLE BEACH CLOUDY 75 72 88 CALM 29.93S N MYRTLE BEACH PTCLDY 74 72 93 CALM 29.91S $$ GAZ063-065-086>088-099>101-113>116-118-119-134>141-150-021100- ...SOUTHEAST GEORGIA... CITY SKY/WX TMP DP RH WIND PRES REMARKS SAVANNAH ARPT CLOUDY 75 73 94 SW3 29.90S HUNTER AAF PTCLDY 76 76 100 SW5 29.87S FORT STEWART NOT AVBL STATESBORO CLOUDY 75 32 21 S3 29.90S SYLVANIA FOG 76 76 100 CALM 29.91S VSB 1/2 CLAXTON NOT AVBL ...CSRA...CENTRAL AND FAR SOUTHEAST GEORGIA... CITY SKY/WX TMP DP RH WIND PRES REMARKS THOMSON CLEAR 73 73 100 CALM 29.96R AUGUSTA-BUSH CLOUDY 73 72 96 CALM 29.90R AUGUSTA-DANIEL CLOUDY 76 71 85 E3 29.92R SWAINSBORO CLOUDY N/A N/A N/A CALM 29.91R FOG VIDALIA FOG 75 73 94 CALM 29.89S VSB 3/4 EASTMAN FOG 75 75 100 CALM 29.92R VSB 3/4 HAZLEHURST CLOUDY 76 76 100 CALM 29.88S ALMA CLOUDY 76 74 93 SE3 29.87S WAYCROSS CLOUDY 79 77 94 S5 29.87S JESUP CLOUDY 79 75 89 CALM 29.89R BAXLEY CLOUDY 77 75 94 CALM 29.88S BRUNSWICK CLOUDY 77 73 88 CALM 29.89S SAINT SIMONS MOCLDY 77 73 87 S3 29.88S $$ SCZ027-028-034-036>038-045-046-048>050-GAZ119-141-021100- ...LAKE AND SUPPLEMENTAL COASTAL OBSERVATIONS... STATION/POSITION TIME TEMP WIND PRES WAVE SWELL AIR SEA DIR/SP/G HT/PER HT/PER/DIR (UTC) (F) (DEG/KT/KT) (MB) (FT/S) (FT/S/D) UPR LAKE MARION NOT AVBL WINYAH BAY 0945 73 CALM 1012.0S LAKE MURRAY 0900 77 CALM 1012.5R ACE BASIN NERRS NOT AVBL FORT PULASKI 1000 78 86 190/ 3/ 5 1012.7R SAPELO ISLAND 1000 77 190/ 5 1012.0S $$ ANZ835-935-AMZ111-154-330-350-352-354-370-450-454-472-021100- ...C-MAN AND BUOY OBSERVATIONS... STATION/POSITION TIME TEMP WIND PRES WAVE SWELL AIR SEA DIR/SP/G HT/PER HT/PER/DIR (UTC) (F) (DEG/KT/KT) (MB) (FT/S) (FT/S/D) BUOY 41004 0950 80 84 240/ 8/ 10 1012.2R 4/ 6 3/ 6 BUOY 41008 0950 80 83 200/ 14/ 17 1012.1R 4/ 6 2/100/ 9 FOLLY BEACH CMAN 1000 80 290/ 2/ 2 1012.7R CAPERS NEARSHORE 0908 82 240/ 8/ 10 1012.6F FRIPP NEARSHORE 0900 82 210/ 12/ 14 1011.9F STATION/POSITION TIME TEMP WIND PRES WAVE SWELL AIR SEA DIR/SP/G HT/PER HT/PER/DIR (UTC) (F) (DEG/KT/KT) (MB) (FT/S) (FT/S/D) 5E ST. MARYS GA 0921 83 N/A 4/ 6 FRYING PAN BUOY 0950 81 83 310/ 10/ 10 1013.0F 5/ 7 5/170/ 7 BUOY 41025 0950 80 85 270/ 12/ 16 1012.5S 4/ 7 2/160/ 7 CAPE LOOKOUT NC 1000 79 280/ 9/ 11 1012.2F BUOY 41002 0950 82 81 230/ 14/ 16 1015.0R 6/ 8 5/260/ 8 BUOY 41010 0920 82 83 180/ 12/ 16 1014.6R ST AUGUSTINE FL 1000 74 79 180/ 10/ 12 1013.0R $$

USA.gov is the U.S. government's official web portal to all federal, state and local government web resources and services.